• In Deutschland
  • Länderverzeichnis
  • Für 7 Tage
  • Wassertemperatur
  • Satellitenkarten
  • Wetterkarte
  • Widgets
  • user-avatar
    Anmelden

    Stündliche Wetter Metzingen

    Heute, 21 Juli, Samstag

    Zeit Temperatur Niederschläge Wind Luftdruck Luftfeuchtigkeit
    00:00 +21°C° 0,8 mm 1 m/S 726 mmHg 82%
    01:00 +20°C° 0,8 mm 1 m/S 726 mmHg 85%
    02:00 +20°C° 0,5 mm 1 m/S 726 mmHg 86%
    03:00 +19°C° 0,5 mm 1 m/S 726 mmHg 87%
    04:00 +19°C° 0,5 mm 1 m/S 726 mmHg 88%
    05:00 +20°C° 0,4 mm 1 m/S 726 mmHg 88%
    06:00 +20°C° 0,4 mm 1 m/S 726 mmHg 87%
    07:00 +20°C° 0,4 mm 2 m/S 726 mmHg 87%
    08:00 +21°C° 0,4 mm 2 m/S 726 mmHg 82%
    09:00 +23°C° 0,4 mm 2 m/S 726 mmHg 77%
    10:00 +24°C° 0,4 mm 3 m/S 726 mmHg 72%
    11:00 +25°C° 0,6 mm 3 m/S 726 mmHg 71%
    12:00 +25°C° 0,6 mm 3 m/S 727 mmHg 70%
    13:00 +26°C° 0,6 mm 3 m/S 727 mmHg 69%
    14:00 +25°C° 1,1 mm 3 m/S 727 mmHg 73%
    15:00 +24°C° 1,1 mm 3 m/S 727 mmHg 77%
    16:00 +24°C° 1,1 mm 2 m/S 727 mmHg 80%
    17:00 +23°C° 1,1 mm 2 m/S 727 mmHg 83%
    18:00 +21°C° 1,1 mm 2 m/S 727 mmHg 86%
    19:00 +20°C° 1,1 mm 2 m/S 727 mmHg 89%
    20:00 +19°C° 0,1 mm 2 m/S 727 mmHg 90%
    21:00 +19°C° 0,1 mm 2 m/S 727 mmHg 91%
    22:00 +18°C° 0,1 mm 2 m/S 728 mmHg 91%
    23:00 +18°C° 0,1 mm 2 m/S 727 mmHg 92%

    Morgen, 22 Juli, Sonntag

    Zeit Temperatur Niederschläge Wind Luftdruck Luftfeuchtigkeit
    00:00 +18°C° 0,1 mm 2 m/S 727 mmHg 92%
    01:00 +17°C° 0,1 mm 2 m/S 727 mmHg 93%
    02:00 +17°C° 0 mm 2 m/S 727 mmHg 93%
    03:00 +17°C° 0 mm 2 m/S 727 mmHg 93%
    04:00 +17°C° 0 mm 2 m/S 727 mmHg 93%
    05:00 +17°C° 0 mm 2 m/S 727 mmHg 92%
    06:00 +18°C° 0 mm 2 m/S 727 mmHg 91%
    07:00 +18°C° 0 mm 2 m/S 728 mmHg 90%
    08:00 +19°C° 0,2 mm 2 m/S 728 mmHg 86%
    09:00 +20°C° 0,2 mm 2 m/S 728 mmHg 81%
    10:00 +21°C° 0,2 mm 2 m/S 728 mmHg 77%
    11:00 +23°C° 0,4 mm 2 m/S 728 mmHg 75%
    12:00 +24°C° 0,4 mm 1 m/S 727 mmHg 73%
    13:00 +24°C° 0,4 mm 1 m/S 727 mmHg 71%
    14:00 +24°C° 0,6 mm 1 m/S 727 mmHg 72%
    15:00 +24°C° 0,6 mm 2 m/S 727 mmHg 73%
    16:00 +25°C° 0,6 mm 2 m/S 727 mmHg 74%
    17:00 +24°C° 0,9 mm 2 m/S 727 mmHg 78%
    18:00 +23°C° 0,9 mm 1 m/S 727 mmHg 82%
    19:00 +23°C° 0,9 mm 1 m/S 727 mmHg 85%
    20:00 +22°C° 0,7 mm 1 m/S 727 mmHg 87%
    21:00 +21°C° 0,7 mm 1 m/S 727 mmHg 89%
    22:00 +20°C° 0,7 mm 1 m/S 727 mmHg 91%
    23:00 +19°C° 0,1 mm 1 m/S 727 mmHg 92%

    übermorgen, 23 Juli, Montag

    Zeit Temperatur Niederschläge Wind Luftdruck Luftfeuchtigkeit
    00:00 +19°C° 0,1 mm 1 m/S 727 mmHg 93%
    01:00 +18°C° 0,1 mm 1 m/S 728 mmHg 93%
    02:00 +18°C° 0 mm 1 m/S 728 mmHg 94%
    03:00 +18°C° 0 mm 1 m/S 728 mmHg 94%
    04:00 +16°C° 0 mm 1 m/S 728 mmHg 95%
    05:00 +18°C° 0 mm 1 m/S 728 mmHg 93%
    06:00 +18°C° 0 mm 2 m/S 728 mmHg 91%
    07:00 +19°C° 0 mm 2 m/S 729 mmHg 90%
    08:00 +20°C° 0,1 mm 2 m/S 729 mmHg 83%
    09:00 +23°C° 0,1 mm 2 m/S 729 mmHg 76%
    10:00 +24°C° 0,1 mm 3 m/S 729 mmHg 69%
    11:00 +25°C° 0,4 mm 3 m/S 729 mmHg 66%
    12:00 +26°C° 0,4 mm 3 m/S 729 mmHg 62%
    13:00 +27°C° 0,4 mm 3 m/S 729 mmHg 59%
    14:00 +27°C° 0,3 mm 3 m/S 729 mmHg 58%
    15:00 +27°C° 0,3 mm 3 m/S 729 mmHg 57%
    16:00 +27°C° 0,3 mm 3 m/S 729 mmHg 55%
    17:00 +26°C° 0,1 mm 2 m/S 729 mmHg 60%
    18:00 +25°C° 0,1 mm 2 m/S 729 mmHg 66%
    19:00 +25°C° 0,1 mm 1 m/S 729 mmHg 71%
    20:00 +23°C° 0 mm 1 m/S 729 mmHg 74%
    21:00 +19°C° 0 mm 0 m/S 729 mmHg 78%
    22:00 +18°C° 0 mm 0 m/S 730 mmHg 82%
    23:00 +17°C° 0 mm 0 m/S 729 mmHg 83%

    24 Juli, Dienstag

    Zeit Temperatur Niederschläge Wind Luftdruck Luftfeuchtigkeit
    00:00 +17°C° 0 mm 0 m/S 729 mmHg 85%
    01:00 +16°C° 0 mm 0 m/S 729 mmHg 86%
    02:00 +16°C° 0 mm 0 m/S 729 mmHg 87%
    03:00 +16°C° 0 mm 0 m/S 729 mmHg 88%
    04:00 +15°C° 0 mm 0 m/S 728 mmHg 89%
    05:00 +17°C° 0 mm 0 m/S 728 mmHg 86%
    06:00 +18°C° 0 mm 0 m/S 729 mmHg 84%
    07:00 +21°C° 0 mm 1 m/S 729 mmHg 81%
    08:00 +23°C° 0 mm 1 m/S 729 mmHg 75%
    09:00 +24°C° 0 mm 2 m/S 729 mmHg 69%
    10:00 +26°C° 0 mm 2 m/S 728 mmHg 63%
    11:00 +27°C° 0 mm 3 m/S 728 mmHg 61%
    12:00 +28°C° 0 mm 3 m/S 728 mmHg 58%
    13:00 +29°C° 0 mm 3 m/S 728 mmHg 55%
    14:00 +29°C° 0 mm 3 m/S 727 mmHg 56%
    15:00 +29°C° 0 mm 3 m/S 727 mmHg 56%
    16:00 +29°C° 0 mm 3 m/S 727 mmHg 57%
    17:00 +28°C° 0,1 mm 2 m/S 727 mmHg 63%
    18:00 +27°C° 0,1 mm 2 m/S 727 mmHg 69%
    19:00 +26°C° 0,1 mm 2 m/S 727 mmHg 76%
    20:00 +24°C° 0,1 mm 2 m/S 727 mmHg 79%
    21:00 +23°C° 0,1 mm 1 m/S 727 mmHg 83%
    22:00 +21°C° 0,1 mm 1 m/S 728 mmHg 86%
    23:00 +21°C° 0,1 mm 1 m/S 727 mmHg 87%

    25 Juli, Mittwoch

    Zeit Temperatur Niederschläge Wind Luftdruck Luftfeuchtigkeit
    00:00 +20°C° 0,1 mm 1 m/S 727 mmHg 89%
    01:00 +20°C° 0,1 mm 1 m/S 727 mmHg 90%
    02:00 +19°C° 0,1 mm 1 m/S 727 mmHg 91%
    03:00 +19°C° 0,1 mm 1 m/S 727 mmHg 91%
    04:00 +19°C° 0,1 mm 1 m/S 727 mmHg 92%
    05:00 +20°C° 0,1 mm 1 m/S 728 mmHg 90%
    06:00 +21°C° 0,1 mm 1 m/S 728 mmHg 87%
    07:00 +22°C° 0,1 mm 1 m/S 728 mmHg 85%
    08:00 +23°C° 0,3 mm 1 m/S 728 mmHg 79%
    09:00 +25°C° 0,3 mm 1 m/S 728 mmHg 74%
    10:00 +27°C° 0,3 mm 1 m/S 728 mmHg 68%
    11:00 +27°C° 0,3 mm 1 m/S 728 mmHg 65%
    12:00 +28°C° 0,3 mm 1 m/S 728 mmHg 61%
    13:00 +29°C° 0,3 mm 1 m/S 728 mmHg 57%
    14:00 +29°C° 0,6 mm 1 m/S 728 mmHg 59%
    15:00 +29°C° 0,6 mm 1 m/S 728 mmHg 60%
    16:00 +29°C° 0,6 mm 1 m/S 728 mmHg 62%
    17:00 +28°C° 0,8 mm 1 m/S 728 mmHg 66%
    18:00 +27°C° 0,8 mm 1 m/S 728 mmHg 70%
    19:00 +26°C° 0,8 mm 1 m/S 728 mmHg 74%
    20:00 +24°C° 0,6 mm 1 m/S 728 mmHg 76%
    21:00 +23°C° 0,6 mm 1 m/S 729 mmHg 79%
    22:00 +22°C° 0,6 mm 1 m/S 729 mmHg 81%
    23:00 +21°C° 0,1 mm 1 m/S 729 mmHg 84%

    26 Juli, Donnerstag

    Zeit Temperatur Niederschläge Wind Luftdruck Luftfeuchtigkeit
    00:00 +21°C° 0,1 mm 1 m/S 729 mmHg 86%
    01:00 +20°C° 0,1 mm 1 m/S 729 mmHg 88%
    02:00 +20°C° 0,1 mm 1 m/S 729 mmHg 90%
    03:00 +20°C° 0,1 mm 1 m/S 729 mmHg 91%
    04:00 +19°C° 0,1 mm 1 m/S 729 mmHg 92%
    05:00 +20°C° 0 mm 1 m/S 729 mmHg 90%
    06:00 +21°C° 0 mm 1 m/S 729 mmHg 88%
    07:00 +22°C° 0 mm 1 m/S 730 mmHg 86%
    08:00 +24°C° 0,2 mm 1 m/S 730 mmHg 81%
    09:00 +25°C° 0,2 mm 1 m/S 730 mmHg 76%
    10:00 +27°C° 0,2 mm 1 m/S 730 mmHg 71%
    11:00 +28°C° 0,3 mm 1 m/S 730 mmHg 67%
    12:00 +29°C° 0,3 mm 1 m/S 729 mmHg 62%
    13:00 +30°C° 0,3 mm 1 m/S 729 mmHg 58%
    14:00 +30°C° 0,4 mm 1 m/S 729 mmHg 58%
    15:00 +30°C° 0,4 mm 1 m/S 729 mmHg 58%
    16:00 +30°C° 0,4 mm 1 m/S 729 mmHg 59%
    17:00 +29°C° 0,3 mm 1 m/S 729 mmHg 64%
    18:00 +28°C° 0,3 mm 1 m/S 729 mmHg 69%
    19:00 +27°C° 0,3 mm 1 m/S 729 mmHg 74%
    20:00 +25°C° 0 mm 1 m/S 729 mmHg 77%
    21:00 +24°C° 0 mm 1 m/S 729 mmHg 80%
    22:00 +22°C° 0 mm 1 m/S 729 mmHg 84%
    23:00 +22°C° 0 mm 1 m/S 729 mmHg 85%
    Mehr zeigen